This is the latest recevied weather packets stored in our database for station/object AD0YN. If no packets are shown the sender has not sent any weather packets the latest 10 day(s).
| Time | Temp. | Humidity | Pressure | Rain* | Wind** | Luminosity | Snow |
|---|---|---|---|---|---|---|---|
| 1778013027 | 12.22° C | 65% | 1011.4 hPa | 0 mm | - | 158 W/m² | - |
| 1778012722 | 12.22° C | 61% | 1011.4 hPa | 0 mm | - | 193 W/m² | - |
| 1778012418 | 12.22° C | 62% | 1011.3 hPa | 0 mm | - | 162 W/m² | - |
| 1778012116 | 12.22° C | 60% | 1011.4 hPa | 0 mm | - | 190 W/m² | - |
| 1778011813 | 12.22° C | 64% | 1011.5 hPa | 0 mm | - | 212 W/m² | - |
| 1778011511 | 12.22° C | 62% | 1011.4 hPa | 0 mm | - | 232 W/m² | - |
| 1778011208 | 12.22° C | 65% | 1011.4 hPa | 0 mm | - | 301 W/m² | - |
| 1778010904 | 12.22° C | 61% | 1011.6 hPa | 0 mm | - | 307 W/m² | - |
| 1778010601 | 11.67° C | 68% | 1011.7 hPa | 0 mm | - | 231 W/m² | - |
| 1778010299 | 12.22° C | 62% | 1011.4 hPa | 0 mm | - | 272 W/m² | - |
| 1778009998 | 11.67° C | 66% | 1011.6 hPa | 0 mm | - | 305 W/m² | - |
| 1778009696 | 11.67° C | 64% | 1011.4 hPa | 0 mm | - | 257 W/m² | - |
| 1778009393 | 11.67° C | 64% | 1011.8 hPa | 0 mm | - | 270 W/m² | - |
| 1778009092 | 11.67° C | 65% | 1011.8 hPa | 0 mm | - | 215 W/m² | - |
| 1778008789 | 11.67° C | 65% | 1011.8 hPa | 0 mm | - | 195 W/m² | - |
| 1778008488 | 11.11° C | 67% | 1011.8 hPa | 0 mm | - | 166 W/m² | - |
| 1778008184 | 11.11° C | 68% | 1011.7 hPa | 0 mm | - | 166 W/m² | - |
| 1778007879 | 11.11° C | 67% | 1012 hPa | 0 mm | - | 166 W/m² | - |
| 1778007575 | 11.11° C | 73% | 1011.8 hPa | 0 mm | - | 173 W/m² | - |
| 1778007273 | 11.11° C | 67% | 1011.8 hPa | 0 mm | - | 170 W/m² | - |
| 1778006968 | 11.11° C | 69% | 1011.8 hPa | 0 mm | - | 165 W/m² | - |
| 1778006666 | 11.11° C | 74% | 1011.9 hPa | 0 mm | - | 153 W/m² | - |
| 1778006362 | 11.11° C | 73% | 1011.8 hPa | 0 mm | - | 155 W/m² | - |
| 1778006059 | 11.67° C | 68% | 1011.7 hPa | 0 mm | - | 168 W/m² | - |
| 1778005756 | 11.67° C | 72% | 1011.8 hPa | 0 mm | - | 211 W/m² | - |
* Rain latest hour (hover to see other rain measurements)
** Current wind speed in m/s (hover to see current wind gust speed)